Precipitable_Water
0.85 0.89 0.95 1.01 1.06 1.07 1.07 1.09 1.09 1.18 1.22 1.25 1.32 1.21 1.26 1.23 1.17 1.02 0.73 0.78 0.77 0.77 0.78 0.69 0.77 0.81 0.65 0.43 0.34 0.46 0.60 0.59 0.52 0.50 0.41 0.40 0.40 0.41 0.32 0.37 0.40 0.46 0.45 0.52 0.63 0.66 0.76
0.68 0.74 0.78 0.84 0.91 1.03 1.06 1.07 1.05 1.14 1.20 1.23 1.35 1.22 1.23 1.23 1.19 1.00 0.71 0.78 0.80 0.78 0.76 0.66 0.75 0.80 0.58 0.34 0.47 0.55 0.63 0.52 0.48 0.46 0.42 0.41 0.40 0.49 0.42 0.40 0.43 0.47 0.48 0.51 0.61 0.64 0.74
0.55 0.60 0.63 0.69 0.79 0.88 0.94 1.06 1.03 1.03 1.16 1.22 1.28 1.20 1.24 1.20 1.16 0.94 0.73 0.77 0.76 0.76 0.70 0.64 0.73 0.76 0.54 0.41 0.50 0.60 0.56 0.51 0.51 0.49 0.41 0.46 0.50 0.47 0.49 0.42 0.48 0.50 0.43 0.48 0.55 0.70 0.70
0.56 0.52 0.51 0.55 0.59 0.71 0.82 0.86 0.98 1.02 1.05 1.16 1.23 1.20 1.20 1.19 1.07 0.86 0.80 0.75 0.74 0.73 0.68 0.64 0.78 0.69 0.42 0.57 0.59 0.54 0.57 0.55 0.58 0.56 0.54 0.58 0.61 0.54 0.52 0.56 0.51 0.42 0.50 0.34 0.48 0.67 0.73
0.60 0.60 0.58 0.49 0.49 0.54 0.70 0.77 0.87 0.99 1.02 1.09 1.18 1.15 1.14 1.15 1.04 0.82 0.78 0.71 0.70 0.68 0.69 0.71 0.70 0.55 0.39 0.59 0.51 0.59 0.60 0.49 0.52 0.55 0.60 0.65 0.62 0.53 0.52 0.40 0.41 0.38 0.32 0.31 0.39 0.64 0.68
0.61 0.63 0.59 0.59 0.55 0.52 0.55 0.68 0.75 0.84 0.95 1.08 1.16 1.12 1.13 1.15 0.99 0.82 0.74 0.69 0.67 0.68 0.68 0.68 0.64 0.48 0.49 0.41 0.55 0.57 0.60 0.58 0.52 0.51 0.51 0.52 0.50 0.41 0.42 0.40 0.26 0.27 0.28 0.35 0.35 0.52 0.61
0.53 0.58 0.61 0.59 0.60 0.60 0.59 0.58 0.56 0.69 0.84 1.06 1.07 1.11 1.10 1.14 0.98 0.83 0.72 0.60 0.49 0.46 0.51 0.40 0.43 0.43 0.45 0.54 0.63 0.50 0.58 0.57 0.53 0.50 0.35 0.44 0.35 0.32 0.37 0.42 0.45 0.35 0.32 0.34 0.42 0.57 0.52
0.53 0.54 0.58 0.61 0.58 0.58 0.59 0.57 0.55 0.56 0.71 0.94 1.09 1.08 1.08 1.08 0.89 0.83 0.69 0.47 0.47 0.51 0.36 0.48 0.49 0.49 0.54 0.58 0.46 0.49 0.59 0.41 0.41 0.29 0.37 0.35 0.30 0.41 0.47 0.49 0.43 0.37 0.33 0.36 0.46 0.58 0.60
0.52 0.50 0.52 0.54 0.58 0.60 0.58 0.58 0.57 0.54 0.64 0.91 1.10 1.07 1.08 0.98 0.88 0.81 0.61 0.52 0.63 0.60 0.35 0.43 0.49 0.46 0.51 0.56 0.47 0.46 0.52 0.45 0.37 0.31 0.34 0.31 0.37 0.44 0.45 0.42 0.41 0.38 0.31 0.38 0.37 0.48 0.57
0.47 0.45 0.45 0.43 0.44 0.47 0.54 0.60 0.59 0.55 0.60 0.88 1.07 0.99 1.00 0.96 0.79 0.74 0.57 0.66 0.64 0.61 0.27 0.33 0.38 0.46 0.53 0.57 0.47 0.62 0.60 0.49 0.44 0.35 0.36 0.35 0.43 0.40 0.39 0.37 0.40 0.32 0.43 0.43 0.44 0.43 0.37
0.46 0.44 0.51 0.51 0.50 0.51 0.52 0.54 0.61 0.56 0.61 0.82 1.03 1.02 1.01 0.89 0.81 0.66 0.61 0.68 0.62 0.53 0.12 0.37 0.37 0.59 0.56 0.48 0.50 0.54 0.71 0.57 0.39 0.41 0.43 0.38 0.39 0.37 0.34 0.35 0.39 0.32 0.47 0.46 0.46 0.41 0.42
0.50 0.48 0.46 0.50 0.53 0.51 0.56 0.61 0.62 0.62 0.63 0.77 1.06 1.01 0.92 0.92 0.87 0.77 0.72 0.65 0.54 0.25 0.13 0.31 0.37 0.37 0.38 0.46 0.50 0.57 0.56 0.65 0.59 0.47 0.47 0.45 0.54 0.45 0.42 0.43 0.49 0.55 0.49 0.47 0.47 0.44 0.32
0.50 0.47 0.46 0.47 0.50 0.51 0.59 0.70 0.72 0.68 0.68 0.83 1.00 0.98 0.95 0.95 0.70 0.80 0.71 0.52 0.23 0.15 0.32 0.29 0.28 0.35 0.35 0.37 0.43 0.47 0.46 0.44 0.40 0.34 0.34 0.42 0.43 0.52 0.51 0.45 0.53 0.50 0.42 0.30 0.28 0.28 0.26
0.54 0.51 0.49 0.47 0.47 0.53 0.61 0.67 0.73 0.66 0.72 0.83 0.98 0.99 0.96 0.92 0.89 0.80 0.61 0.35 0.14 0.21 0.28 0.40 0.32 0.33 0.28 0.36 0.38 0.43 0.43 0.39 0.51 0.47 0.37 0.31 0.28 0.46 0.56 0.47 0.39 0.42 0.40 0.32 0.22 0.23 0.26
0.56 0.54 0.55 0.51 0.51 0.54 0.58 0.63 0.69 0.70 0.72 0.89 0.95 0.93 0.89 0.93 0.85 0.75 0.44 0.18 0.16 0.24 0.37 0.34 0.32 0.25 0.25 0.33 0.38 0.40 0.42 0.40 0.48 0.50 0.35 0.34 0.34 0.54 0.52 0.52 0.47 0.39 0.33 0.40 0.33 0.34 0.30
0.56 0.59 0.58 0.55 0.52 0.54 0.57 0.63 0.70 0.72 0.77 0.93 0.85 0.81 0.83 0.91 0.88 0.62 0.34 0.20 0.25 0.38 0.44 0.43 0.26 0.28 0.21 0.28 0.32 0.37 0.36 0.44 0.46 0.52 0.57 0.43 0.31 0.47 0.49 0.51 0.47 0.41 0.42 0.26 0.28 0.23 0.21
0.62 0.60 0.60 0.55 0.54 0.56 0.56 0.64 0.69 0.74 0.90 0.94 0.79 0.67 0.82 0.93 0.79 0.52 0.23 0.22 0.30 0.42 0.46 0.40 0.32 0.27 0.26 0.28 0.35 0.35 0.34 0.43 0.51 0.49 0.51 0.44 0.37 0.38 0.44 0.41 0.38 0.38 0.33 0.33 0.32 0.27 0.20
0.63 0.64 0.60 0.59 0.55 0.54 0.57 0.63 0.70 0.76 0.88 0.87 0.70 0.55 0.87 0.89 0.50 0.42 0.23 0.28 0.37 0.38 0.46 0.45 0.40 0.32 0.27 0.33 0.33 0.33 0.32 0.40 0.53 0.50 0.38 0.43 0.37 0.30 0.35 0.46 0.48 0.43 0.37 0.34 0.25 0.24 0.26
0.61 0.63 0.61 0.60 0.57 0.56 0.59 0.64 0.72 0.83 0.90 0.77 0.63 0.64 0.85 0.80 0.37 0.27 0.28 0.28 0.37 0.36 0.40 0.41 0.35 0.35 0.35 0.33 0.29 0.33 0.35 0.48 0.51 0.46 0.39 0.41 0.32 0.24 0.27 0.34 0.42 0.36 0.37 0.35 0.32 0.31 0.24
0.63 0.61 0.62 0.61 0.60 0.59 0.65 0.67 0.76 0.85 0.90 0.82 0.65 0.51 0.64 0.64 0.48 0.27 0.25 0.27 0.31 0.42 0.42 0.45 0.37 0.36 0.35 0.32 0.37 0.31 0.33 0.40 0.47 0.42 0.46 0.43 0.33 0.26 0.21 0.25 0.32 0.29 0.34 0.37 0.32 0.24 0.25
0.62 0.59 0.60 0.62 0.62 0.68 0.67 0.71 0.80 0.87 0.92 0.81 0.65 0.56 0.61 0.34 0.30 0.28 0.31 0.31 0.31 0.32 0.43 0.44 0.37 0.33 0.31 0.28 0.30 0.31 0.36 0.37 0.41 0.40 0.38 0.37 0.28 0.32 0.33 0.35 0.34 0.33 0.33 0.34 0.31 0.33 0.28
0.60 0.60 0.63 0.65 0.68 0.69 0.74 0.74 0.85 0.90 0.92 0.79 0.60 0.57 0.57 0.33 0.30 0.28 0.32 0.31 0.30 0.36 0.39 0.35 0.34 0.35 0.34 0.30 0.29 0.28 0.33 0.33 0.32 0.37 0.36 0.41 0.29 0.33 0.29 0.33 0.33 0.30 0.33 0.34 0.35 0.35 0.34
0.64 0.65 0.67 0.69 0.71 0.72 0.77 0.81 0.88 0.93 0.92 0.75 0.76 0.75 0.48 0.31 0.27 0.27 0.30 0.33 0.34 0.39 0.43 0.44 0.41 0.36 0.34 0.36 0.40 0.41 0.39 0.39 0.40 0.35 0.36 0.36 0.32 0.28 0.24 0.31 0.29 0.23 0.29 0.31 0.32 0.36 0.36
0.66 0.67 0.69 0.73 0.73 0.81 0.85 0.83 0.90 0.96 0.93 0.84 0.76 0.67 0.41 0.22 0.27 0.29 0.33 0.37 0.37 0.37 0.37 0.43 0.46 0.39 0.44 0.50 0.47 0.45 0.43 0.42 0.42 0.42 0.45 0.35 0.33 0.31 0.24 0.26 0.16 0.26 0.33 0.33 0.33 0.35 0.38
0.67 0.69 0.73 0.74 0.83 0.91 0.87 0.94 1.00 0.95 0.90 0.84 0.76 0.55 0.36 0.22 0.31 0.34 0.36 0.37 0.41 0.42 0.38 0.42 0.44 0.49 0.54 0.44 0.33 0.29 0.29 0.30 0.34 0.39 0.41 0.43 0.35 0.28 0.22 0.21 0.23 0.27 0.31 0.32 0.30 0.31 0.40
0.71 0.76 0.78 0.85 0.96 1.00 1.00 1.00 1.01 0.96 0.88 0.78 0.67 0.57 0.39 0.27 0.31 0.40 0.38 0.40 0.34 0.36 0.38 0.40 0.47 0.54 0.50 0.37 0.29 0.19 0.17 0.22 0.22 0.30 0.40 0.41 0.40 0.31 0.27 0.20 0.16 0.26 0.35 0.40 0.39 0.24 0.39
0.73 0.78 0.81 0.88 0.96 0.96 0.98 0.99 0.98 0.98 0.90 0.79 0.60 0.52 0.38 0.30 0.39 0.43 0.37 0.36 0.41 0.39 0.36 0.40 0.40 0.41 0.46 0.31 0.24 0.20 0.20 0.27 0.20 0.20 0.23 0.26 0.28 0.24 0.24 0.20 0.21 0.30 0.35 0.38 0.20 0.21 0.35
0.71 0.78 0.82 0.88 0.94 0.93 0.94 0.96 0.97 0.97 0.90 0.76 0.56 0.49 0.37 0.33 0.41 0.45 0.46 0.42 0.42 0.41 0.33 0.40 0.37 0.38 0.36 0.26 0.25 0.24 0.22 0.25 0.24 0.25 0.24 0.22 0.21 0.21 0.23 0.19 0.15 0.35 0.34 0.26 0.32 0.38 0.39
0.70 0.77 0.81 0.87 0.94 0.93 0.92 0.92 0.93 0.92 0.86 0.75 0.50 0.48 0.47 0.38 0.41 0.50 0.51 0.54 0.52 0.50 0.43 0.42 0.36 0.37 0.38 0.31 0.30 0.30 0.25 0.27 0.24 0.19 0.32 0.21 0.26 0.23 0.25 0.23 0.34 0.38 0.37 0.41 0.41 0.39 0.40
Wind_Speed
36 35 35 34 34 34 34 34 34 34 34 33 32 32 30 31 32 31 31 30 29 28 26 25 26 25 25 25 27 27 26 26 26 24 23 21 21 23 26 27 37 42 36 38 38 37 34
39 39 39 38 37 36 36 35 35 35 35 34 34 32 31 31 31 31 31 29 28 27 25 25 24 23 24 25 25 25 24 24 24 22 20 19 18 21 23 30 33 34 38 36 36 38 33
39 40 40 40 40 39 38 37 37 36 36 35 33 31 30 30 31 31 30 29 27 25 25 23 23 23 24 26 25 22 23 23 22 20 18 18 17 17 19 23 34 36 31 37 36 33 32
40 40 40 41 42 42 41 40 39 38 37 37 33 32 31 30 30 30 30 28 25 24 24 22 22 22 24 24 24 25 24 23 21 18 17 15 14 16 19 19 25 39 27 35 36 32 31
41 41 41 41 41 41 43 42 41 39 39 38 33 32 31 30 29 28 28 26 24 23 21 19 20 21 23 23 23 22 20 20 18 16 14 12 9 12 14 22 25 35 24 34 31 33 27
41 41 42 42 43 42 43 43 43 42 41 39 34 32 30 28 28 27 26 24 21 19 18 18 18 20 21 20 19 20 16 12 8 8 10 11 8 10 16 18 23 31 28 28 32 29 31
43 44 44 44 43 44 44 44 44 43 41 40 36 32 30 28 26 25 24 19 18 18 17 16 17 19 19 18 18 13 8 5 3 6 10 9 9 10 18 20 20 29 26 28 28 25 24
45 46 46 46 46 45 45 45 44 43 41 39 36 33 30 26 25 23 20 18 17 16 17 15 17 18 16 14 11 8 6 2 2 8 7 6 9 11 16 18 20 29 25 24 24 20 22
47 48 49 49 49 48 47 46 45 44 41 39 35 32 28 25 23 21 18 17 15 14 14 14 13 12 11 7 8 6 6 4 5 6 7 8 6 13 14 21 20 22 25 22 24 26 18
51 52 52 51 51 50 49 48 46 43 41 39 35 32 27 23 21 17 16 14 13 12 11 12 11 9 7 6 6 6 4 4 4 4 4 5 9 16 16 20 22 20 23 22 24 20 15
53 53 53 52 52 52 52 51 47 44 40 37 36 32 26 23 18 14 13 11 9 10 10 9 7 4 5 3 5 7 5 3 3 4 2 2 10 19 18 19 22 17 25 21 17 13 15
55 53 52 51 52 52 51 47 45 43 38 35 33 30 24 21 17 13 9 8 7 9 10 7 5 2 2 3 5 6 5 5 5 4 5 5 13 16 14 19 19 16 20 16 15 10 6
52 51 51 50 50 48 37 31 32 33 35 29 33 28 24 18 13 11 7 5 8 7 7 5 3 3 3 3 5 6 7 6 6 7 10 13 13 13 17 18 18 20 18 12 12 10 8
51 51 50 49 46 35 29 29 30 26 29 27 31 27 24 18 13 10 6 5 6 6 3 2 2 5 5 5 4 5 7 7 8 11 12 11 11 11 14 14 17 18 15 9 9 10 9
50 49 48 45 35 28 26 27 25 17 26 26 30 25 20 17 15 10 5 5 5 4 1 2 3 7 5 4 5 6 9 7 9 9 11 10 12 11 12 13 13 14 11 8 9 7 7
49 47 45 36 27 24 22 20 14 7 24 30 27 23 19 18 15 9 4 5 3 1 3 3 5 9 8 7 7 8 8 7 7 8 10 14 16 11 10 11 8 11 12 8 5 6 7
47 44 39 29 24 21 18 13 5 8 18 30 25 19 20 19 13 7 4 3 2 3 4 4 6 11 9 9 8 8 6 6 7 7 10 10 10 7 9 6 7 8 8 6 8 6 8
45 40 33 25 21 17 13 9 6 13 17 27 26 18 22 19 10 7 4 3 4 7 6 4 8 11 12 12 9 8 7 7 8 8 8 6 9 8 6 5 6 7 8 8 8 11 8
41 35 28 22 17 14 11 9 10 13 27 28 21 17 21 17 9 7 4 5 7 8 7 7 8 12 12 12 9 7 7 8 7 9 7 7 5 5 3 2 4 5 5 6 7 7 9
37 31 24 19 15 12 10 11 14 14 33 26 21 16 16 16 9 8 7 8 9 9 9 9 10 12 13 10 7 7 6 7 6 6 6 5 5 4 4 3 3 4 5 6 5 6 9
32 27 21 17 13 9 10 13 19 18 34 26 20 14 14 14 12 10 8 12 11 11 9 9 10 12 12 10 8 8 7 7 6 4 4 4 4 3 2 2 3 3 5 7 7 8 7
29 24 19 13 10 10 10 16 24 24 34 24 19 12 14 9 13 12 10 13 12 11 10 10 12 11 10 10 9 9 9 8 6 3 3 2 3 4 2 2 2 2 3 6 7 9 9
24 19 15 11 9 8 11 21 26 30 35 23 19 12 14 12 13 13 12 14 13 13 11 10 12 11 10 8 8 8 8 8 6 6 3 2 3 1 2 3 2 3 5 6 7 9 10
19 16 12 9 5 3 13 25 26 35 31 21 19 15 13 12 14 14 15 14 15 12 12 11 10 10 9 10 9 8 7 5 4 3 4 4 3 3 4 4 5 7 7 8 7 7 9
16 14 11 10 5 4 18 26 37 33 23 24 17 14 13 13 15 13 14 15 14 11 11 11 9 9 12 10 8 6 4 3 2 2 3 4 4 4 5 7 9 8 7 7 9 11 11
14 12 12 10 10 18 24 31 33 28 19 20 16 14 12 15 14 13 14 15 13 11 9 9 9 10 9 8 7 6 5 4 2 2 2 2 3 4 4 4 7 7 8 9 9 12 12
11 10 10 10 14 17 22 26 26 23 18 20 16 13 13 13 14 13 13 14 12 11 10 9 9 8 7 6 5 4 3 4 3 3 3 2 2 4 4 5 8 8 7 7 7 10 9
10 8 8 6 14 14 16 21 23 20 17 18 14 12 13 12 14 13 12 12 11 11 11 10 8 6 6 5 4 4 3 3 2 2 3 3 3 4 4 6 9 7 7 8 9 9 10
7 5 4 3 11 13 15 17 20 19 19 18 14 12 13 13 14 14 12 11 10 10 10 9 7 7 6 5 3 3 2 2 3 3 3 4 4 4 5 6 7 8 8 9 10 11 12
Wind_Direction
309 308 310 311 312 312 311 308 308 307 307 304 302 303 303 309 311 311 311 310 309 309 306 304 306 303 306 304 299 295 292 289 288 283 276 268 258 249 242 231 220 220 218 217 215 214 209
305 304 303 304 305 307 308 308 308 307 306 303 301 299 301 304 310 311 311 310 309 308 308 305 306 305 307 305 305 300 291 290 288 282 270 263 257 254 242 225 217 212 215 216 211 212 212
306 303 301 299 299 300 302 305 305 306 306 301 300 300 296 304 308 310 312 311 309 308 308 306 305 306 308 304 307 301 296 291 285 278 267 261 254 247 225 222 215 212 209 210 209 209 210
305 305 303 300 297 295 296 298 301 301 302 305 297 298 295 301 306 307 311 311 308 309 308 305 308 309 309 311 310 303 298 292 280 270 265 254 250 234 218 209 206 199 208 201 204 205 207
307 305 305 302 300 296 292 293 295 297 298 300 292 295 296 295 303 306 310 310 309 310 309 308 310 313 313 315 313 309 302 297 283 261 249 227 227 213 204 196 197 190 199 197 196 202 203
309 307 305 303 300 298 295 292 291 292 295 297 286 291 292 292 300 305 309 310 310 312 312 313 314 318 317 320 319 315 309 306 298 233 205 204 206 205 200 202 188 188 195 193 194 200 205
309 308 306 304 301 298 296 293 291 287 288 292 279 285 290 287 295 301 308 310 313 315 309 310 317 321 323 325 324 331 324 322 296 185 187 197 206 211 190 195 191 182 189 187 191 196 195
308 307 306 304 301 298 297 294 290 286 282 285 273 275 284 281 289 297 304 303 305 312 314 306 314 320 325 332 344 356 3 345 176 171 182 196 210 195 179 191 182 182 183 185 183 187 199
309 308 306 303 301 298 296 294 290 286 279 276 265 267 275 277 283 292 297 297 308 312 318 318 324 329 342 354 4 10 34 74 141 178 203 196 192 180 172 176 170 182 185 183 186 190 207
309 308 307 304 301 298 294 291 289 284 276 267 260 258 264 270 277 282 294 294 304 312 324 319 325 331 354 8 20 34 42 88 143 188 196 236 215 183 174 178 181 176 183 175 174 179 198
310 308 306 305 302 300 295 290 283 280 271 268 249 249 254 257 266 275 289 295 303 316 327 319 325 341 13 34 41 42 52 92 180 166 150 164 168 171 168 168 175 185 176 170 165 188 213
312 310 308 307 306 303 299 291 282 272 257 265 239 236 243 248 253 265 278 291 308 327 310 322 326 280 28 75 51 63 61 97 114 118 134 139 143 151 160 162 166 168 159 167 182 171 176
313 312 310 309 308 306 300 297 295 271 246 252 226 229 229 231 240 242 264 288 321 312 316 315 323 161 118 81 67 70 76 94 109 108 105 113 132 140 147 162 174 165 169 171 188 201 203
315 315 313 311 309 305 299 297 301 272 229 241 214 215 217 221 225 225 239 300 320 302 302 353 58 145 130 83 81 83 86 96 85 112 112 116 133 137 149 155 163 166 169 169 169 178 184
317 316 315 313 307 303 302 303 305 261 227 207 198 202 207 211 209 207 242 299 286 274 146 108 111 133 135 109 114 94 100 99 92 101 116 119 118 135 152 155 160 179 178 179 153 159 162
319 318 317 313 306 303 305 308 309 256 196 186 189 192 200 194 192 201 255 290 289 223 115 95 147 156 140 128 112 109 102 90 102 95 100 114 114 116 131 150 158 169 185 191 196 179 187
321 320 319 311 305 303 304 303 282 180 176 183 185 186 189 187 187 206 243 249 216 161 127 121 149 153 149 136 132 121 104 97 99 109 107 112 111 125 129 130 149 175 193 198 195 199 196
323 320 319 311 302 298 294 287 232 188 188 180 182 185 183 180 185 201 215 184 155 131 117 105 132 151 152 146 133 118 108 108 96 108 117 117 119 111 134 168 180 186 193 199 207 230 224
324 321 318 311 303 290 281 243 215 197 179 173 174 175 179 183 189 192 174 151 142 128 114 113 134 150 151 152 134 128 116 120 108 110 109 124 123 113 69 107 166 181 201 201 202 212 225
324 322 317 310 299 284 253 234 204 197 173 172 168 169 177 188 190 177 157 153 137 126 117 109 125 147 152 149 147 146 145 139 120 112 101 110 128 144 158 171 178 190 193 197 201 213 222
325 323 317 309 296 269 259 219 193 184 175 170 171 176 175 175 190 171 155 152 140 129 118 114 120 140 155 154 152 150 152 149 145 126 118 99 114 119 105 80 158 193 206 207 216 219 216
328 324 320 311 289 273 238 200 186 178 174 175 171 169 175 177 167 161 156 156 142 132 126 124 125 132 146 156 166 167 158 161 168 158 135 88 138 136 82 66 79 183 212 214 225 231 235
334 333 328 317 298 257 207 186 180 175 172 175 177 174 165 164 161 161 161 153 147 137 129 126 129 128 126 143 156 163 164 169 179 180 187 170 167 189 261 280 270 287 256 248 243 240 235
344 345 344 347 335 221 182 168 174 172 175 172 168 171 168 165 162 162 156 151 148 143 137 133 129 124 132 135 139 144 145 148 161 213 220 221 230 254 251 272 268 264 262 256 250 260 255
360 7 17 24 33 131 158 158 154 152 153 165 170 170 168 159 162 155 153 150 141 135 133 137 135 136 134 123 125 139 168 183 213 221 251 241 241 263 257 260 280 275 256 254 251 256 256
11 18 24 38 82 123 138 148 154 159 153 161 162 165 165 157 165 162 158 157 153 148 139 138 136 143 137 130 126 128 155 163 189 249 249 238 240 246 269 265 266 276 267 273 264 271 255
14 23 34 67 126 126 141 154 159 162 157 163 159 160 163 159 166 165 162 163 161 156 152 150 149 147 149 144 141 144 163 167 165 179 209 236 257 246 264 275 285 278 272 277 272 275 266
357 14 33 68 136 136 150 162 169 169 170 170 171 168 168 163 165 168 169 166 165 165 165 168 152 167 161 149 157 169 165 193 188 207 216 212 223 254 263 279 289 297 279 262 274 282 277
337 357 28 82 147 144 154 162 174 176 172 172 173 170 161 163 168 168 164 166 172 178 175 173 176 174 181 169 180 182 203 213 219 260 263 263 246 269 254 278 295 297 289 287 281 279 279